TAM3664 SBSP-SBVT

Flight info

Callsign TAM3664
Flight time 1h 7m
Altitude 33000
Route UREMI UZ42 CXI DCT SEGLI DCT TODET
Aircraft A320/M-SDE3FGHIRWY/LB1

Departure

Time 2026-04-23 20:09
Airport Congonhas–Deputado Freitas Nobre Airport (SBSP)

Arrival

Time 2026-04-23 21:16
Airport Eurico de Aguiar Salles International Airport (SBVT)
Time Latitude Longitude Altitude Speed Heading
2026-04-23 19:57 -23.62485 -46.65985 2611 ft 0 kts 237°
2026-04-23 20:03 -23.62484 -46.65982 2610 ft 2 kts 237°
2026-04-23 20:03 -23.62475 -46.65967 2672 ft 2 kts 250°
2026-04-23 20:03 -23.62471 -46.65949 2672 ft 2 kts 284°
2026-04-23 20:03 -23.62479 -46.65933 2615 ft 2 kts 321°
2026-04-23 20:04 -23.62488 -46.65925 2615 ft 1 kts 327°
2026-04-23 20:04 -23.62491 -46.65923 2616 ft 0 kts 327°
2026-04-23 20:05 -23.62490 -46.65924 2615 ft 1 kts 327°
2026-04-23 20:05 -23.62480 -46.65931 2615 ft 2 kts 327°
2026-04-23 20:05 -23.62463 -46.65943 2614 ft 3 kts 327°
2026-04-23 20:05 -23.62433 -46.65964 2613 ft 8 kts 327°
2026-04-23 20:06 -23.62374 -46.66005 2611 ft 12 kts 327°
2026-04-23 20:06 -23.62294 -46.66041 2609 ft 14 kts 354°
2026-04-23 20:06 -23.62195 -46.66071 2604 ft 16 kts 327°
2026-04-23 20:06 -23.62098 -46.66135 2596 ft 17 kts 340°
2026-04-23 20:07 -23.62038 -46.66086 2597 ft 12 kts 121°
2026-04-23 20:07 -23.62063 -46.66064 2592 ft 0 kts 146°
2026-04-23 20:08 -23.62248 -46.65937 2605 ft 72 kts 147°
2026-04-23 20:08 -23.62883 -46.65497 2630 ft 141 kts 147°
2026-04-23 20:08 -23.63805 -46.64852 3172 ft 162 kts 146°
2026-04-23 20:09 -23.64698 -46.64085 4069 ft 166 kts 128°
2026-04-23 20:09 -23.65120 -46.62898 4512 ft 179 kts 90°
2026-04-23 20:09 -23.64865 -46.61506 4719 ft 200 kts 75°
2026-04-23 20:09 -23.64513 -46.60061 4894 ft 224 kts 75°
2026-04-23 20:10 -23.64241 -46.58903 5104 ft 240 kts 76°
2026-04-23 20:10 -23.63654 -46.56401 5688 ft 265 kts 75°
2026-04-23 20:10 -23.63189 -46.54427 6459 ft 271 kts 75°
2026-04-23 20:10 -23.62717 -46.52420 7235 ft 275 kts 75°
2026-04-23 20:11 -23.62242 -46.50398 8046 ft 277 kts 75°
2026-04-23 20:11 -23.61757 -46.48357 8869 ft 279 kts 73°
2026-04-23 20:11 -23.61078 -46.46362 9623 ft 282 kts 69°
2026-04-23 20:11 -23.60325 -46.44367 10330 ft 286 kts 68°
2026-04-23 20:12 -23.59527 -46.42308 10623 ft 306 kts 68°
2026-04-23 20:12 -23.58662 -46.40100 10866 ft 325 kts 68°
2026-04-23 20:12 -23.57761 -46.37804 11402 ft 332 kts 67°
2026-04-23 20:12 -23.56848 -46.35472 12055 ft 336 kts 68°
2026-04-23 20:13 -23.55928 -46.33110 12703 ft 340 kts 68°
2026-04-23 20:13 -23.54999 -46.30723 13339 ft 344 kts 68°
2026-04-23 20:13 -23.54063 -46.28312 13965 ft 348 kts 68°
2026-04-23 20:13 -23.53115 -46.25870 14477 ft 352 kts 68°
2026-04-23 20:14 -23.52155 -46.23399 15019 ft 355 kts 68°
2026-04-23 20:14 -23.51190 -46.20907 15549 ft 359 kts 68°
2026-04-23 20:14 -23.50213 -46.18384 16063 ft 363 kts 68°
2026-04-23 20:14 -23.49264 -46.15934 16539 ft 367 kts 68°
2026-04-23 20:15 -23.48265 -46.13363 17044 ft 371 kts 68°
2026-04-23 20:15 -23.47250 -46.10756 17539 ft 375 kts 68°
2026-04-23 20:15 -23.46228 -46.08130 18038 ft 379 kts 68°
2026-04-23 20:15 -23.45197 -46.05473 18503 ft 383 kts 68°
2026-04-23 20:16 -23.44157 -46.02785 18907 ft 387 kts 68°
2026-04-23 20:16 -23.43104 -46.00073 19290 ft 392 kts 68°
2026-04-23 20:16 -23.42034 -45.97321 19666 ft 397 kts 67°
2026-04-23 20:16 -23.40949 -45.94539 20047 ft 401 kts 67°
2026-04-23 20:17 -23.39850 -45.91728 20418 ft 406 kts 67°
2026-04-23 20:17 -23.38737 -45.88889 20828 ft 409 kts 67°
2026-04-23 20:17 -23.37630 -45.86065 21220 ft 413 kts 66°
2026-04-23 20:17 -23.36501 -45.83180 21605 ft 416 kts 66°
2026-04-23 20:18 -23.35363 -45.80273 22001 ft 420 kts 66°
2026-04-23 20:18 -23.34214 -45.77341 22385 ft 423 kts 66°
2026-04-23 20:18 -23.33056 -45.74386 22779 ft 426 kts 66°
2026-04-23 20:18 -23.31891 -45.71411 23143 ft 430 kts 66°
2026-04-23 20:19 -23.30711 -45.68399 23499 ft 434 kts 66°
2026-04-23 20:19 -23.29910 -45.66356 23726 ft 436 kts 66°
2026-04-23 20:19 -23.28730 -45.63351 24007 ft 440 kts 66°
2026-04-23 20:19 -23.27525 -45.60282 24309 ft 443 kts 66°
2026-04-23 20:20 -23.26295 -45.57153 24601 ft 446 kts 66°
2026-04-23 20:20 -23.25087 -45.54086 24893 ft 448 kts 66°
2026-04-23 20:20 -23.23438 -45.49898 25293 ft 452 kts 66°
2026-04-23 20:20 -23.22612 -45.47807 25474 ft 455 kts 66°
2026-04-23 20:21 -23.21364 -45.44643 25760 ft 457 kts 66°
2026-04-23 20:21 -23.20106 -45.41456 26042 ft 460 kts 66°
2026-04-23 20:21 -23.18839 -45.38245 26342 ft 463 kts 66°
2026-04-23 20:21 -23.17567 -45.35019 26620 ft 466 kts 66°
2026-04-23 20:22 -23.16288 -45.31775 26904 ft 469 kts 66°
2026-04-23 20:22 -23.14995 -45.28506 27179 ft 472 kts 66°
2026-04-23 20:22 -23.13697 -45.25227 27448 ft 474 kts 66°
2026-04-23 20:22 -23.12387 -45.21919 27715 ft 477 kts 66°
2026-04-23 20:23 -23.11072 -45.18600 27993 ft 480 kts 66°
2026-04-23 20:23 -23.09747 -45.15263 28258 ft 483 kts 66°
2026-04-23 20:23 -23.08413 -45.11911 28533 ft 485 kts 66°
2026-04-23 20:23 -23.07069 -45.08539 28794 ft 488 kts 66°
2026-04-23 20:24 -23.05721 -45.05147 29052 ft 491 kts 66°
2026-04-23 20:24 -23.04367 -45.01735 29318 ft 493 kts 66°
2026-04-23 20:24 -23.03004 -44.98305 29573 ft 496 kts 66°
2026-04-23 20:24 -23.01633 -44.94866 29827 ft 498 kts 66°
2026-04-23 20:25 -23.00250 -44.91409 30076 ft 501 kts 66°
2026-04-23 20:25 -22.98878 -44.87983 30305 ft 503 kts 66°
2026-04-23 20:25 -22.97482 -44.84494 30540 ft 504 kts 66°
2026-04-23 20:25 -22.96092 -44.81009 30788 ft 505 kts 66°
2026-04-23 20:26 -22.94693 -44.77496 31043 ft 506 kts 66°
2026-04-23 20:26 -22.93294 -44.73989 31303 ft 507 kts 66°
2026-04-23 20:26 -22.91894 -44.70494 31668 ft 504 kts 66°
2026-04-23 20:26 -22.90498 -44.67015 32035 ft 502 kts 66°
2026-04-23 20:27 -22.89109 -44.63552 32414 ft 500 kts 66°
2026-04-23 20:27 -22.87724 -44.60101 32787 ft 498 kts 66°
2026-04-23 20:27 -22.86343 -44.56667 33068 ft 496 kts 66°
2026-04-23 20:28 -22.83616 -44.49905 33139 ft 481 kts 66°
2026-04-23 20:28 -22.80950 -44.43303 33132 ft 477 kts 66°
2026-04-23 20:29 -22.78293 -44.36716 33135 ft 476 kts 66°
2026-04-23 20:29 -22.75650 -44.30151 33127 ft 475 kts 66°
2026-04-23 20:30 -22.72994 -44.23582 33125 ft 476 kts 66°
2026-04-23 20:30 -22.69001 -44.13744 33127 ft 476 kts 66°
2026-04-23 20:31 -22.66333 -44.07179 33125 ft 476 kts 66°
2026-04-23 20:31 -22.63670 -44.00627 33129 ft 475 kts 66°
2026-04-23 20:32 -22.61002 -43.94089 33132 ft 475 kts 66°
2026-04-23 20:32 -22.58335 -43.87545 33126 ft 475 kts 66°
2026-04-23 20:33 -22.55674 -43.81013 33128 ft 474 kts 66°
2026-04-23 20:33 -22.53011 -43.74486 33129 ft 474 kts 66°
2026-04-23 20:34 -22.50341 -43.67973 33127 ft 474 kts 66°
2026-04-23 20:34 -22.47670 -43.61467 33127 ft 473 kts 66°
2026-04-23 20:35 -22.45005 -43.54964 33124 ft 473 kts 66°
2026-04-23 20:35 -22.42337 -43.48475 33121 ft 472 kts 66°
2026-04-23 20:36 -22.39686 -43.42035 33124 ft 472 kts 66°
2026-04-23 20:36 -22.37015 -43.35558 33122 ft 472 kts 66°
2026-04-23 20:37 -22.34344 -43.29090 33121 ft 471 kts 66°
2026-04-23 20:37 -22.31672 -43.22625 33124 ft 471 kts 66°
2026-04-23 20:38 -22.28999 -43.16165 33129 ft 471 kts 66°
2026-04-23 20:38 -22.26325 -43.09715 33129 ft 470 kts 66°
2026-04-23 20:39 -22.23651 -43.03275 33130 ft 470 kts 66°
2026-04-23 20:39 -22.20974 -42.96836 33131 ft 470 kts 66°
2026-04-23 20:40 -22.18299 -42.90402 33127 ft 470 kts 66°
2026-04-23 20:40 -22.15642 -42.84022 33127 ft 470 kts 66°
2026-04-23 20:41 -22.12959 -42.77589 33129 ft 470 kts 66°
2026-04-23 20:41 -22.10276 -42.71170 33129 ft 470 kts 66°
2026-04-23 20:42 -22.07591 -42.64747 33126 ft 470 kts 66°
2026-04-23 20:42 -22.04905 -42.58335 33124 ft 469 kts 66°
2026-04-23 20:43 -22.02219 -42.51924 33121 ft 469 kts 66°
2026-04-23 20:43 -21.99526 -42.45513 33115 ft 469 kts 66°
2026-04-23 20:44 -21.96833 -42.39104 33114 ft 469 kts 66°
2026-04-23 20:44 -21.94137 -42.32703 33109 ft 469 kts 66°
2026-04-23 20:45 -21.91439 -42.26302 33108 ft 469 kts 66°
2026-04-23 20:45 -21.88736 -42.19907 33108 ft 469 kts 66°
2026-04-23 20:46 -21.86049 -42.13551 33110 ft 469 kts 66°
2026-04-23 20:46 -21.84439 -42.10450 33111 ft 470 kts 53°
2026-04-23 20:46 -21.82266 -42.07892 33105 ft 469 kts 44°
2026-04-23 20:47 -21.77565 -42.03016 33097 ft 470 kts 43°
2026-04-23 20:47 -21.72847 -41.98157 33098 ft 470 kts 44°
2026-04-23 20:48 -21.68131 -41.93288 33098 ft 470 kts 44°
2026-04-23 20:48 -21.63420 -41.88412 33100 ft 470 kts 44°
2026-04-23 20:49 -21.58712 -41.83551 33104 ft 470 kts 44°
2026-04-23 20:49 -21.53993 -41.78679 33099 ft 470 kts 44°
2026-04-23 20:50 -21.49284 -41.73821 33103 ft 470 kts 44°
2026-04-23 20:50 -21.44569 -41.68966 33107 ft 469 kts 44°
2026-04-23 20:51 -21.39859 -41.64124 33107 ft 469 kts 44°
2026-04-23 20:51 -21.35146 -41.59286 33109 ft 469 kts 44°
2026-04-23 20:52 -21.32798 -41.56878 32890 ft 463 kts 44°
2026-04-23 20:52 -21.30491 -41.54512 32647 ft 456 kts 44°
2026-04-23 20:52 -21.28206 -41.52167 32397 ft 453 kts 44°
2026-04-23 20:52 -21.25939 -41.49841 32151 ft 451 kts 44°
2026-04-23 20:53 -21.23680 -41.47525 31918 ft 449 kts 44°
2026-04-23 20:53 -21.21427 -41.45218 31685 ft 447 kts 44°
2026-04-23 20:53 -21.19181 -41.42922 31439 ft 445 kts 44°
2026-04-23 20:53 -21.16943 -41.40633 31205 ft 444 kts 44°
2026-04-23 20:54 -21.14746 -41.38384 30974 ft 442 kts 44°
2026-04-23 20:54 -21.12527 -41.36112 30744 ft 441 kts 44°
2026-04-23 20:54 -21.10312 -41.33849 30513 ft 439 kts 44°
2026-04-23 20:54 -21.08107 -41.31600 30288 ft 437 kts 44°
2026-04-23 20:55 -21.05911 -41.29356 30034 ft 436 kts 44°
2026-04-23 20:55 -21.03724 -41.27121 29765 ft 434 kts 44°
2026-04-23 20:55 -21.01546 -41.24898 29476 ft 430 kts 44°
2026-04-23 20:55 -20.99396 -41.22704 29023 ft 426 kts 44°
2026-04-23 20:56 -20.97258 -41.20525 28551 ft 423 kts 44°
2026-04-23 20:56 -20.95136 -41.18363 28078 ft 420 kts 44°
2026-04-23 20:56 -20.93028 -41.16215 27601 ft 417 kts 45°
2026-04-23 20:56 -20.90937 -41.14082 27150 ft 414 kts 44°
2026-04-23 20:57 -20.88854 -41.11963 26679 ft 412 kts 44°
2026-04-23 20:57 -20.86783 -41.09858 26218 ft 410 kts 44°
2026-04-23 20:57 -20.84725 -41.07767 25737 ft 408 kts 44°
2026-04-23 20:57 -20.82665 -41.05673 25259 ft 407 kts 45°
2026-04-23 20:58 -20.80621 -41.03592 24761 ft 407 kts 45°
2026-04-23 20:58 -20.78574 -41.01507 24266 ft 406 kts 45°
2026-04-23 20:58 -20.76527 -40.99428 23757 ft 406 kts 44°
2026-04-23 20:58 -20.74480 -40.97355 23179 ft 405 kts 44°
2026-04-23 20:59 -20.72438 -40.95290 22680 ft 403 kts 44°
2026-04-23 20:59 -20.70411 -40.93235 22177 ft 401 kts 44°
2026-04-23 20:59 -20.68398 -40.91191 21678 ft 399 kts 44°
2026-04-23 20:59 -20.66400 -40.89163 21291 ft 394 kts 44°
2026-04-23 21:00 -20.64428 -40.87162 20690 ft 387 kts 44°
2026-04-23 21:00 -20.62530 -40.85245 20249 ft 374 kts 44°
2026-04-23 21:00 -20.60644 -40.83341 19796 ft 362 kts 44°
2026-04-23 21:00 -20.58866 -40.81543 19367 ft 352 kts 44°
2026-04-23 21:01 -20.57090 -40.79748 18945 ft 342 kts 44°
2026-04-23 21:01 -20.55384 -40.78024 18527 ft 334 kts 44°
2026-04-23 21:01 -20.53717 -40.76337 18084 ft 326 kts 44°
2026-04-23 21:01 -20.52114 -40.74714 17698 ft 319 kts 44°
2026-04-23 21:02 -20.50507 -40.73089 17311 ft 318 kts 44°
2026-04-23 21:02 -20.48897 -40.71464 16935 ft 319 kts 44°
2026-04-23 21:02 -20.47283 -40.69837 16553 ft 320 kts 44°
2026-04-23 21:02 -20.45658 -40.68199 16171 ft 322 kts 44°
2026-04-23 21:03 -20.44026 -40.66553 15790 ft 323 kts 44°
2026-04-23 21:03 -20.42395 -40.64908 15411 ft 324 kts 45°
2026-04-23 21:03 -20.40753 -40.63255 15022 ft 325 kts 45°
2026-04-23 21:03 -20.39107 -40.61599 14635 ft 326 kts 45°
2026-04-23 21:04 -20.37452 -40.59933 14248 ft 327 kts 45°
2026-04-23 21:04 -20.35796 -40.58265 13841 ft 328 kts 45°
2026-04-23 21:04 -20.34158 -40.56615 13427 ft 328 kts 44°
2026-04-23 21:04 -20.32500 -40.54944 13029 ft 327 kts 44°
2026-04-23 21:05 -20.30847 -40.53281 12627 ft 326 kts 44°
2026-04-23 21:05 -20.29201 -40.51622 12230 ft 325 kts 44°
2026-04-23 21:05 -20.27559 -40.49968 11823 ft 325 kts 44°
2026-04-23 21:05 -20.25920 -40.48316 11404 ft 325 kts 44°
2026-04-23 21:06 -20.24278 -40.46663 11016 ft 324 kts 43°
2026-04-23 21:06 -20.22666 -40.45042 10890 ft 313 kts 43°
2026-04-23 21:06 -20.21102 -40.43470 10669 ft 307 kts 43°
2026-04-23 21:06 -20.19556 -40.41918 10370 ft 304 kts 43°
2026-04-23 21:07 -20.18023 -40.40377 10041 ft 302 kts 43°
2026-04-23 21:07 -20.16517 -40.38864 9669 ft 301 kts 43°
2026-04-23 21:07 -20.15000 -40.37341 9306 ft 299 kts 43°
2026-04-23 21:07 -20.13494 -40.35828 8940 ft 297 kts 43°
2026-04-23 21:08 -20.11998 -40.34328 8427 ft 293 kts 43°
2026-04-23 21:08 -20.10509 -40.32836 7990 ft 293 kts 43°
2026-04-23 21:08 -20.09033 -40.31357 7633 ft 291 kts 43°
2026-04-23 21:08 -20.07565 -40.29887 7272 ft 289 kts 43°
2026-04-23 21:09 -20.06170 -40.28371 7033 ft 282 kts 53°
2026-04-23 21:09 -20.05221 -40.26610 6909 ft 269 kts 69°
2026-04-23 21:09 -20.04649 -40.24757 6793 ft 258 kts 72°
2026-04-23 21:09 -20.04231 -40.22936 6555 ft 252 kts 86°
2026-04-23 21:10 -20.04382 -40.21101 6238 ft 248 kts 107°
2026-04-23 21:10 -20.05081 -40.19448 5783 ft 246 kts 126°
2026-04-23 21:10 -20.06254 -40.18137 5148 ft 246 kts 145°
2026-04-23 21:10 -20.07771 -40.17316 4520 ft 245 kts 164°
2026-04-23 21:11 -20.09425 -40.17070 4090 ft 237 kts 181°
2026-04-23 21:11 -20.10496 -40.17213 3820 ft 229 kts 193°
2026-04-23 21:11 -20.11916 -40.17822 3494 ft 212 kts 209°
2026-04-23 21:11 -20.13036 -40.18766 3223 ft 202 kts 225°
2026-04-23 21:12 -20.13848 -40.19977 2973 ft 200 kts 239°
2026-04-23 21:12 -20.14488 -40.21209 2727 ft 182 kts 238°
2026-04-23 21:12 -20.15272 -40.22699 2438 ft 161 kts 238°
2026-04-23 21:12 -20.15792 -40.23686 2213 ft 151 kts 238°
2026-04-23 21:13 -20.16135 -40.24336 2081 ft 148 kts 237°
2026-04-23 21:13 -20.16635 -40.25284 1896 ft 146 kts 238°
2026-04-23 21:13 -20.17132 -40.26223 1696 ft 145 kts 237°
2026-04-23 21:13 -20.17693 -40.27107 1509 ft 143 kts 226°
2026-04-23 21:14 -20.18421 -40.27814 1330 ft 141 kts 212°
2026-04-23 21:14 -20.19275 -40.28317 1144 ft 140 kts 201°
2026-04-23 21:14 -20.20206 -40.28594 962 ft 139 kts 186°
2026-04-23 21:14 -20.21160 -40.28637 776 ft 136 kts 175°
2026-04-23 21:15 -20.22085 -40.28504 629 ft 136 kts 171°
2026-04-23 21:15 -20.23040 -40.28367 414 ft 139 kts 173°
2026-04-23 21:15 -20.23987 -40.28230 234 ft 138 kts 171°
2026-04-23 21:15 -20.24925 -40.28093 27 ft 132 kts 172°
2026-04-23 21:16 -20.25719 -40.27978 29 ft 99 kts 172°
2026-04-23 21:16 -20.26243 -40.27900 22 ft 45 kts 172°
2026-04-23 21:16 -20.26421 -40.27876 20 ft 23 kts 173°
2026-04-23 21:16 -20.26583 -40.27893 19 ft 18 kts 206°
2026-04-23 21:17 -20.26608 -40.27996 21 ft 14 kts 278°
2026-04-23 21:17 -20.26601 -40.28079 21 ft 6 kts 262°
2026-04-23 21:17 -20.26606 -40.28122 21 ft 5 kts 263°
2026-04-23 21:17 -20.26610 -40.28157 21 ft 3 kts 263°
2026-04-23 21:18 -20.26611 -40.28159 21 ft 0 kts 263°